Hourly Weather Kabul

Today, 5 August, Wednesday

Time Temperature Precipitation Wind Pressure Humidity
00:00 +24°C° 0 mm 2 mps 607 mmHg 24%
01:00 +23°C° 0 mm 1 mps 606 mmHg 25%
02:00 +23°C° 0 mm 1 mps 606 mmHg 26%
03:00 +22°C° 0 mm 1 mps 606 mmHg 27%
04:00 +22°C° 0 mm 1 mps 606 mmHg 28%
05:00 +21°C° 0 mm 1 mps 606 mmHg 29%
06:00 +22°C° 0 mm 1 mps 607 mmHg 27%
07:00 +23°C° 0 mm 1 mps 607 mmHg 24%
08:00 +24°C° 0 mm 2 mps 608 mmHg 22%
09:00 +26°C° 0 mm 2 mps 608 mmHg 20%
10:00 +27°C° 0 mm 2 mps 609 mmHg 18%
11:00 +29°C° 0 mm 3 mps 609 mmHg 16%
12:00 +30°C° 0 mm 3 mps 609 mmHg 15%
13:00 +31°C° 0 mm 3 mps 609 mmHg 14%
14:00 +33°C° 0 mm 3 mps 609 mmHg 13%
15:00 +33°C° 0 mm 3 mps 609 mmHg 12%
16:00 +33°C° 0 mm 4 mps 609 mmHg 12%
17:00 +34°C° 0 mm 4 mps 609 mmHg 11%
18:00 +32°C° 0 mm 4 mps 609 mmHg 14%
19:00 +30°C° 0 mm 3 mps 609 mmHg 16%
20:00 +28°C° 0 mm 3 mps 609 mmHg 19%
21:00 +27°C° 0 mm 2 mps 609 mmHg 21%
22:00 +26°C° 0 mm 2 mps 609 mmHg 23%
23:00 +25°C° 0 mm 1 mps 609 mmHg 25%

Tomorrow, 6 August, Thursday

Time Temperature Precipitation Wind Pressure Humidity
00:00 +24°C° 0 mm 1 mps 608 mmHg 26%
01:00 +24°C° 0 mm 1 mps 608 mmHg 28%
02:00 +23°C° 0 mm 1 mps 608 mmHg 29%
03:00 +23°C° 0 mm 1 mps 608 mmHg 30%
04:00 +20°C° 0 mm 0 mps 608 mmHg 31%
05:00 +20°C° 0 mm 0 mps 607 mmHg 32%
06:00 +21°C° 0 mm 0 mps 608 mmHg 28%
07:00 +23°C° 0 mm 0 mps 609 mmHg 25%
08:00 +24°C° 0 mm 0 mps 610 mmHg 22%
09:00 +28°C° 0 mm 1 mps 611 mmHg 20%
10:00 +29°C° 0 mm 1 mps 611 mmHg 19%
11:00 +31°C° 0 mm 1 mps 611 mmHg 17%
12:00 +32°C° 0 mm 2 mps 611 mmHg 16%
13:00 +34°C° 0 mm 2 mps 611 mmHg 16%
14:00 +35°C° 0 mm 2 mps 611 mmHg 15%
15:00 +35°C° 0 mm 3 mps 611 mmHg 14%
16:00 +35°C° 0 mm 3 mps 611 mmHg 14%
17:00 +36°C° 0 mm 3 mps 611 mmHg 14%
18:00 +34°C° 0 mm 3 mps 611 mmHg 17%
19:00 +33°C° 0 mm 3 mps 611 mmHg 20%
20:00 +31°C° 0 mm 2 mps 610 mmHg 23%
21:00 +30°C° 0 mm 2 mps 610 mmHg 26%
22:00 +29°C° 0 mm 1 mps 610 mmHg 29%
23:00 +28°C° 0 mm 1 mps 610 mmHg 32%

Day after tomorrow, 7 August, Friday

Time Temperature Precipitation Wind Pressure Humidity
00:00 +27°C° 0 mm 1 mps 610 mmHg 32%
01:00 +24°C° 0 mm 0 mps 610 mmHg 33%
02:00 +23°C° 0 mm 0 mps 609 mmHg 33%
03:00 +23°C° 0 mm 0 mps 609 mmHg 34%
04:00 +22°C° 0 mm 0 mps 609 mmHg 35%
05:00 +22°C° 0 mm 0 mps 608 mmHg 36%
06:00 +23°C° 0 mm 0 mps 609 mmHg 33%
07:00 +27°C° 0 mm 1 mps 610 mmHg 29%
08:00 +29°C° 0 mm 1 mps 611 mmHg 26%
09:00 +30°C° 0 mm 1 mps 612 mmHg 25%
10:00 +31°C° 0 mm 2 mps 612 mmHg 24%
11:00 +32°C° 0 mm 2 mps 612 mmHg 23%
12:00 +34°C° 0 mm 2 mps 612 mmHg 21%
13:00 +35°C° 0 mm 3 mps 612 mmHg 19%
14:00 +36°C° 0 mm 3 mps 612 mmHg 17%
15:00 +36°C° 0 mm 3 mps 612 mmHg 17%
16:00 +37°C° 0 mm 3 mps 612 mmHg 16%
17:00 +37°C° 0 mm 4 mps 611 mmHg 15%
18:00 +35°C° 0 mm 3 mps 611 mmHg 18%
19:00 +34°C° 0 mm 3 mps 611 mmHg 21%
20:00 +33°C° 0 mm 3 mps 611 mmHg 24%
21:00 +31°C° 0 mm 3 mps 611 mmHg 26%
22:00 +29°C° 0 mm 2 mps 611 mmHg 28%
23:00 +28°C° 0 mm 2 mps 610 mmHg 31%

8 August, Saturday

Time Temperature Precipitation Wind Pressure Humidity
00:00 +27°C° 0 mm 2 mps 610 mmHg 32%
01:00 +27°C° 0 mm 1 mps 609 mmHg 32%
02:00 +26°C° 0 mm 1 mps 609 mmHg 33%
03:00 +25°C° 0 mm 1 mps 608 mmHg 33%
04:00 +24°C° 0 mm 1 mps 608 mmHg 34%
05:00 +24°C° 0 mm 1 mps 607 mmHg 35%
06:00 +25°C° 0 mm 1 mps 608 mmHg 31%
07:00 +26°C° 0 mm 1 mps 609 mmHg 28%
08:00 +28°C° 0 mm 1 mps 610 mmHg 24%
09:00 +29°C° 0 mm 1 mps 610 mmHg 21%
10:00 +31°C° 0 mm 1 mps 610 mmHg 19%
11:00 +32°C° 0 mm 1 mps 610 mmHg 16%
12:00 +33°C° 0 mm 1 mps 610 mmHg 15%
13:00 +35°C° 0 mm 2 mps 610 mmHg 13%
14:00 +37°C° 0 mm 2 mps 610 mmHg 12%
15:00 +37°C° 0 mm 3 mps 610 mmHg 11%
16:00 +37°C° 0 mm 3 mps 609 mmHg 11%
17:00 +37°C° 0 mm 4 mps 609 mmHg 11%
18:00 +36°C° 0 mm 4 mps 609 mmHg 14%
19:00 +34°C° 0 mm 3 mps 608 mmHg 17%
20:00 +31°C° 0 mm 3 mps 608 mmHg 19%
21:00 +30°C° 0 mm 2 mps 608 mmHg 22%
22:00 +29°C° 0 mm 2 mps 608 mmHg 25%
23:00 +28°C° 0 mm 2 mps 608 mmHg 28%

9 August, Sunday

Time Temperature Precipitation Wind Pressure Humidity
00:00 +27°C° 0 mm 1 mps 607 mmHg 29%
01:00 +26°C° 0 mm 1 mps 607 mmHg 29%
02:00 +24°C° 0 mm 0 mps 606 mmHg 30%
03:00 +23°C° 0 mm 0 mps 606 mmHg 31%
04:00 +22°C° 0 mm 0 mps 606 mmHg 32%
05:00 +22°C° 0 mm 0 mps 606 mmHg 32%
06:00 +23°C° 0 mm 0 mps 607 mmHg 29%
07:00 +26°C° 0 mm 1 mps 607 mmHg 26%
08:00 +28°C° 0 mm 1 mps 608 mmHg 23%
09:00 +29°C° 0 mm 1 mps 608 mmHg 22%
10:00 +30°C° 0 mm 1 mps 608 mmHg 20%
11:00 +32°C° 0 mm 2 mps 609 mmHg 19%
12:00 +34°C° 0 mm 2 mps 609 mmHg 18%
13:00 +35°C° 0 mm 2 mps 609 mmHg 17%
14:00 +36°C° 0 mm 2 mps 609 mmHg 17%
15:00 +36°C° 0 mm 3 mps 609 mmHg 17%
16:00 +36°C° 0 mm 3 mps 608 mmHg 18%
17:00 +37°C° 0 mm 4 mps 608 mmHg 19%
18:00 +35°C° 0.1 mm 4 mps 608 mmHg 22%
19:00 +34°C° 0.1 mm 3 mps 608 mmHg 26%
20:00 +31°C° 0.1 mm 3 mps 608 mmHg 29%
21:00 +30°C° 0.1 mm 2 mps 608 mmHg 30%
22:00 +29°C° 0.1 mm 2 mps 608 mmHg 31%
23:00 +28°C° 0.1 mm 1 mps 607 mmHg 32%

10 August, Monday

Time Temperature Precipitation Wind Pressure Humidity
00:00 +27°C° 0 mm 1 mps 607 mmHg 32%
01:00 +27°C° 0 mm 1 mps 607 mmHg 32%
02:00 +26°C° 0 mm 1 mps 606 mmHg 32%
03:00 +23°C° 0 mm 0 mps 606 mmHg 34%
04:00 +23°C° 0 mm 0 mps 606 mmHg 35%
05:00 +22°C° 0 mm 0 mps 606 mmHg 36%
06:00 +23°C° 0 mm 0 mps 606 mmHg 33%
07:00 +25°C° 0 mm 0 mps 607 mmHg 30%
08:00 +26°C° 0 mm 0 mps 607 mmHg 27%
09:00 +29°C° 0 mm 1 mps 608 mmHg 25%
10:00 +31°C° 0 mm 1 mps 608 mmHg 24%
11:00 +32°C° 0 mm 1 mps 608 mmHg 22%
12:00 +34°C° 0 mm 2 mps 608 mmHg 21%
13:00 +36°C° 0 mm 3 mps 609 mmHg 20%
14:00 +37°C° 0 mm 3 mps 609 mmHg 18%
15:00 +37°C° 0 mm 3 mps 609 mmHg 20%
16:00 +36°C° 0 mm 4 mps 608 mmHg 22%
17:00 +36°C° 0 mm 4 mps 608 mmHg 25%
18:00 +35°C° 0.1 mm 4 mps 608 mmHg 29%
19:00 +33°C° 0.1 mm 4 mps 608 mmHg 34%
20:00 +32°C° 0.1 mm 4 mps 608 mmHg 38%
21:00 +30°C° 0.2 mm 3 mps 608 mmHg 38%
22:00 +29°C° 0.2 mm 3 mps 608 mmHg 37%
23:00 +28°C° 0.2 mm 2 mps 608 mmHg 37%
Show more